Preview of NWS' New Version of Forecast
This preview is not operational and should not be used for support decisions.

Regional Weather Roundup (RWR)

Issued by National Weather Service (NWS)

                            
000
ASUS45 KABQ 212110
RWRNM 
NEW MEXICO REGIONAL WEATHER ROUNDUP
NATIONAL WEATHER SERVICE ALBUQUERQUE NM
300 PM MDT SUN APR 21 2019

NOTE: "FAIR" MEANS FEW OR NO CLOUDS BELOW 12,000 FEET AGL WITH NO
       SIGNIFICANT WEATHER OR OBSTRUCTIONS TO VISION.

      THIS PRODUCT IS RELEASED AS TWO VERSIONS.  ONE VERSION NEAR
      THE TOP OF THE HOUR CONTAINING PRELIMINARY DATA FROM ALBUQUERQUE
      AND OTHER STATIONS.  A FINAL VERSION WITH ADDITIONAL DATA IS 
      ISSUED ABOUT 10 MINUTES AFTER THE HOUR.
 
NMZ501-503-504-510>518-212200-
NORTHWEST PLATEAU/NORTHCENTRAL MOUNTAINS
  
CITY           SKY/WX    TMP DP  RH WIND       PRES   REMARKS
FARMINGTON     FAIR      73  17  12 W15G25    29.90F                  
LOS ALAMOS       N/A     66  17  15 W14G25    30.01F                  
SANTA FE       FAIR      71  23  16 W16G23    29.97F                  
TAOS           FAIR      66  12  12 SW26G33   29.99F                  
ANGEL FIRE       N/A     57  20  23 W14G25    30.06S                  

$$
NMZ402-403-502-505>509-212200-
WESTCENTRAL MOUNTAINS/SOUTHWEST MOUNTAINS
  
CITY           SKY/WX    TMP DP  RH WIND       PRES   REMARKS
GALLUP         FAIR      70  25  18 W29G37    29.99F                  
GRANTS         FAIR      70  19  14 W17G32    30.01F                  
SILVER CITY    FAIR      74  24  15 SW20G25   30.02F                  

$$
NMZ407-409-411-412-212200-
SOUTHERN DESERTS
  
CITY           SKY/WX    TMP DP  RH WIND       PRES   REMARKS
DEMING         FAIR      82  23  11 W18G25    29.95F                  
LAS CRUCES     FAIR      82  23  11 SW14G20   29.97F                  
HOLLOMAN AFB   FAIR      81  24  12 SW16      29.94F                  
ALAMOGORDO     FAIR      81  23  12 W15G23    29.95F                  
T OR C         FAIR      84   9   6 W18G28    29.90F                  

$$
NMZ519>523-212200-
CENTRAL VALLEYS/CENTRAL HIGHLANDS
  
CITY           SKY/WX    TMP DP  RH WIND       PRES   REMARKS
ALBUQUERQUE    FAIR      75  21  13 W17G25    29.95F                  
DOUBLE EAGLE   MOSUNNY   72  27  18 SW12G18   29.97F                  
MORIARTY ARPT  FAIR      72  20  14 W15G26    30.01S                  
CLINES CORNERS FAIR      68  18  14 W20G35    30.02F                  
BELEN          FAIR      75  18  11 W9        29.93F                  
SOCORRO        FAIR      82  18   9 S13G20    29.89F                  

$$
NMZ524>526-539-540-212200-
SOUTHCENTRAL MOUNTAINS
  
CITY           SKY/WX    TMP DP  RH WIND       PRES   REMARKS
RUIDOSO        FAIR      70  18  13 W15G21    30.05S                  

$$
NMZ527>531-212200-
NORTHEAST HIGHLANDS/NORTHEAST PLAINS
  
CITY           SKY/WX    TMP DP  RH WIND       PRES   REMARKS
LAS VEGAS      FAIR      70  15  12 W26G35    29.96F                  
RATON          FAIR      71  14  11 W17G33    29.88F                  
CLAYTON        FAIR      77  24  14 W18G30    29.82F                  

$$
NMZ532>537-212200-
EASTCENTRAL PLAINS
  
CITY           SKY/WX    TMP DP  RH WIND       PRES   REMARKS
SANTA ROSA     FAIR      79  24  12 SW18G29   29.87F                  
TUCUMCARI      FAIR      84  28  13 W25G37    29.80F                  
CANNON AFB     FAIR      82  24  12 W20G28    29.87F                  
CLOVIS AIRPORT FAIR      83  25  12 SW20G30   29.87F                  

$$
NMZ028-029-538-212200-
SOUTHEAST PLAINS
  
CITY           SKY/WX    TMP DP  RH WIND       PRES   REMARKS
ROSWELL        FAIR      92  18   6 W16G24    29.81F                  
ARTESIA        FAIR      88  25  10 SW17G26   29.84F                  
CARLSBAD       FAIR      89  27  10 W21G31    29.85F                  
HOBBS          SUNNY     86  23  10 SW18G29   29.89F                  


$$